Effective Sunday, March 17, 2024, the National Weather Service National Data Buoy Center will discontinue its Dial-A-Buoy Interactive Voice Response system. For more information, see Service Change Notice 24-06 (PDF).

Station SANF1 - Sand Key, FL Image indicating link to RSS feed of recent meteorological observations for station SANF1


Conditions at SANF1 as of
(12:20 am EST)
0520 GMT on 02/25/2024:
     

Click on the graph icon in the table below to see a time series plot of the last five days of that observation.

5-day plot - Wind Direction Wind Direction (WDIR): N ( 350 deg true )
5-day plot - Wind Speed Wind Speed (WSPD): 18 kts
5-day plot - Wind Gust Wind Gust (GST): 22 kts
5-day plot - Atmospheric Pressure Atmospheric Pressure (PRES):30.13 in
5-day plot - Air Temperature Air Temperature (ATMP): 66.7 °F
5-day plot - Dew Point Dew Point (DEWP): 51.8 °F
5-day plot - Wind Speed at 10 Meters Wind Speed at 10 meters (WSPD10M): 17 kts
5-day plot - Wind Speed at 20 Meters Wind Speed at 20 meters (WSPD20M): 19 kts
5-day plot -  Wind Speed, Wind Gust and Atmospheric Pressure Combined plot of Wind Speed, Gust, and Air Pressure
Supplemental Measurements
Highest 1-minute Wind Speed
Time (EST)5-day plot - 1-Minute Wind Speed WSPD 5-day plot - 1-Minute Wind Direction WDIR
12:14 am 21 kts-
Previous observations
TIME
(EST)
5-day plot - Wind Direction
WDIR
 
5-day plot - Wind Speed
WSPD
kts
5-day plot - Wind Gust
GST
kts
5-day plot - Wave Height
WVHT
ft
5-day plot - Dominant Wave Period
DPD
sec
5-day plot - Average Wave Period
APD
sec
5-day plot - Mean Wave Direction
MWD
 
5-day plot - Atmospheric Pressure
PRES
in
5-day plot - Pressure Tendency
PTDY
in
5-day plot - Air Temperature
ATMP
°F
5-day plot - Water Temperature
WTMP
°F
5-day plot - Dew Point
DEWP
°F
5-day plot - Salinity
SAL
psu
5-day plot - Visibility
VIS
nmi
5-day plot - Tide (above MLLW)
TIDE
ft
2024-02-25 12:10 amNNW 18 21----30.13- 66.7- 52.3---
2024-02-25 12:00 amNNW 17 20----30.14+0.03------
2024-02-24 11:50 pmNNW 17 21----30.13- 66.9- 51.4---
2024-02-24 11:40 pmNNW 18 23----30.14- 67.1- 52.0---
2024-02-24 11:30 pmNNW 19 21----30.13- 67.3- 50.9---
2024-02-24 11:20 pmNNW 18 22----30.13- 67.1- 51.4---
2024-02-24 11:10 pmNNW 18 23----30.13- 66.9- 52.2---
2024-02-24 11:00 pmNNW 19 23----30.13+0.04 67.1- 51.1---
2024-02-24 10:50 pmNNW 18 23----30.13- 67.1- 51.6---
2024-02-24 10:40 pmNNW 17 21----30.13- 67.1- 50.9---
2024-02-24 10:30 pmNNW 17 21----30.12- 67.1- 51.6---
2024-02-24 10:20 pmNNW 17 21----30.12- 67.3- 52.3---
2024-02-24 10:10 pmNNW 17 21----30.12- 67.5- 51.6---
2024-02-24 10:00 pmNNW 17 21----30.11+0.04 67.5- 50.9---
2024-02-24 09:50 pmNNW 17 22----30.11- 67.5- 50.9---
2024-02-24 09:40 pmNNW 17 19----30.11- 67.6- 51.3---
2024-02-24 09:30 pmNNW 17 21----30.11- 67.8- 50.7---
2024-02-24 09:20 pmNNW 17 20----30.11- 67.8- 50.5---
2024-02-24 09:10 pmNNW 17 21----30.11- 67.8- 50.4---
2024-02-24 09:00 pmNNW 17 20----30.10+0.05 68.0- 49.6---
2024-02-24 08:50 pmNNW 15 20----30.10- 68.0- 49.6---
2024-02-24 08:40 pmNNW 17 19----30.10- 68.0- 49.3---
2024-02-24 08:30 pmNNW 17 21----30.09- 68.0- 50.2---
2024-02-24 08:20 pmNNW 17 22----30.09- 68.0- 50.4---
2024-02-24 08:10 pmNNW 15 19----30.09- 67.8- 52.0---
2024-02-24 08:00 pm N 15 18----30.09+0.05 67.6- 51.4---
2024-02-24 07:50 pmNNW 15 18----30.08- 67.8- 50.7---
2024-02-24 07:40 pmNNW 15 18----30.08- 67.8- 50.2---
2024-02-24 07:30 pmNNW 15 19----30.08- 68.0- 50.0---
2024-02-24 07:20 pmNNW 16 20----30.08- 68.0- 48.6---
2024-02-24 07:10 pmNNW 16 19----30.08- 68.2- 47.8---
2024-02-24 07:00 pmNNW 18 22----30.07+0.05 68.2- 46.6---
2024-02-24 06:50 pmNNW 17 21----30.07- 68.4- 48.0---
2024-02-24 06:40 pm N 16 19----30.06- 68.4- 47.7---
2024-02-24 06:30 pm N 17 19----30.06- 68.5- 46.0---
2024-02-24 06:20 pm N 17 20----30.06- 68.5- 45.7---
2024-02-24 06:10 pm N 16 19----30.06- 68.5- 46.8---
2024-02-24 06:00 pm N 17 20----30.06+0.04------
2024-02-24 05:50 pm N 18 21----30.05- 68.5- 46.2---
2024-02-24 05:40 pm N 18 22----30.05- 68.4- 48.0---
2024-02-24 05:30 pm N 18 21----30.05- 68.4- 47.8---
2024-02-24 05:20 pm N 17 20----30.04- 68.4- 49.8---
2024-02-24 05:10 pm N 17 20----30.04- 68.7- 48.0---
2024-02-24 05:00 pm N 18 20----30.04+0.01 68.7- 46.8---
2024-02-24 04:50 pm N 18 21----30.03- 68.9- 46.8---
2024-02-24 04:40 pm N 18 21----30.03- 68.9- 46.2---
2024-02-24 04:30 pm N 18 21----30.03- 69.1- 46.9---
2024-02-24 04:20 pm N 19 22----30.03- 68.9- 44.8---
2024-02-24 04:10 pm N 19 21----30.02- 68.9- 47.5---
2024-02-24 04:00 pm N 18 22----30.02+0.00 68.9- 47.5---
2024-02-24 03:50 pm N 17 19----30.02- 68.9- 48.4---
2024-02-24 03:40 pm N 17 19----30.02- 68.7- 50.2---
2024-02-24 03:30 pm N 16 19----30.02- 68.5- 50.9---
2024-02-24 03:20 pm N 15 18----30.02- 68.4- 53.4---
2024-02-24 03:10 pm N 16 18----30.02- 68.2- 55.0---
2024-02-24 03:00 pm N 15 17----30.02-0.01 68.2- 56.7---
2024-02-24 02:50 pm N 15 17----30.01- 68.4- 56.5---
2024-02-24 02:40 pm N 14 16----30.01- 68.4- 56.1---
2024-02-24 02:30 pm N 13 15----30.02- 68.4- 56.1---
2024-02-24 02:20 pm N 12 15----30.01- 68.5- 56.5---
2024-02-24 02:10 pm N 13 15----30.01- 68.4- 56.7---
2024-02-24 02:00 pm N 14 16----30.02+0.00 68.5- 57.6---
2024-02-24 01:50 pm N 14 15----30.02- 68.5- 57.4---
2024-02-24 01:40 pm N 14 16----30.03- 68.2- 57.6---
2024-02-24 01:30 pm N 14 16----30.02- 68.2- 59.0---
2024-02-24 01:20 pm N 15 17----30.03- 68.0- 59.5---
2024-02-24 01:10 pm N 14 17----30.03- 68.0- 60.8---
2024-02-24 01:00 pm N 13 16----30.02+0.00 68.0- 61.5---
2024-02-24 12:50 pm N 14 17----30.03- 67.8- 61.7---
2024-02-24 12:40 pm N 14 16----30.03- 68.2- 62.6---
2024-02-24 12:30 pm N 15 17----30.03- 68.2- 62.6---
2024-02-24 12:20 pm N 14 16----30.03- 68.4- 62.4---
2024-02-24 12:10 pm N 14 16----30.02- 68.4- 62.4---
2024-02-24 12:00 pm N 13 16----30.03+0.01 68.7- 63.3---
2024-02-24 11:50 am N 14 17----30.03- 68.7- 62.8---
2024-02-24 11:40 am N 15 17----30.03- 68.9- 63.0---
2024-02-24 11:30 am N 14 16----30.03- 68.9- 63.0---
2024-02-24 11:20 am N 13 15----30.03- 68.9- 63.0---
2024-02-24 11:10 am N 11 14----30.03- 69.1- 63.1---
2024-02-24 11:00 am N 11 12----30.03+0.05 69.3- 63.1---
2024-02-24 10:50 am N 11 14----30.03- 69.1- 63.0---
2024-02-24 10:40 am N 12 13----30.03- 69.1- 63.1---
2024-02-24 10:30 am N 12 15----30.03- 69.1- 63.5---
2024-02-24 10:20 am N 12 14----30.03- 69.1- 63.5---
2024-02-24 10:10 am N 13 15----30.02- 69.1- 63.3---
2024-02-24 10:00 am N 15 18----30.03+0.08 69.1- 63.3---
2024-02-24 09:50 am N 13 16----30.03- 68.9- 63.9---
2024-02-24 09:40 am N 11 13----30.03- 68.7- 64.4---
2024-02-24 09:30 am N 12 15----30.03- 68.5- 64.8---
2024-02-24 09:20 am N 10 12----30.02- 68.5- 65.5---
2024-02-24 09:10 am N 8 10----30.02- 68.5- 65.8---
2024-02-24 09:00 am N 8 9----30.01+0.09 68.4- 66.0---
2024-02-24 08:50 am N 7 9----30.01- 68.5- 66.4---
2024-02-24 08:40 am N 8 10----30.00- 68.5- 66.4---
2024-02-24 08:20 am NW 9 11----29.99- 68.7- 66.4---
2024-02-24 08:10 am NW 11 14----29.99- 68.7- 66.2---
2024-02-24 08:00 amWNW 13 17----29.98+0.07 68.7- 66.0---
2024-02-24 07:50 am W 14 18----29.98- 68.5- 65.3---
2024-02-24 07:40 am W 14 18----29.98- 69.1- 65.5---
2024-02-24 07:30 am W 19 24----29.97- 69.6- 64.9---
2024-02-24 07:20 amWNW 20 23----29.97- 70.5- 64.9---
2024-02-24 07:10 am W 21 25----29.96- 70.3- 65.1---
2024-02-24 07:00 amWNW 21 26----29.96+0.04 70.3- 64.4---
2024-02-24 06:50 amWNW 21 25----29.95- 72.5- 65.3---
2024-02-24 06:40 am W 14 22----29.94- 73.2- 66.2---
2024-02-24 06:30 amWNW 14 18----29.94- 73.0- 64.8---
2024-02-24 06:20 am W 15 18----29.93- 73.4- 66.0---
2024-02-24 06:10 am W 14 16----29.93- 73.6- 66.4---
2024-02-24 06:00 am W 15 17----29.93+0.00 73.8- 66.2---
2024-02-24 05:50 am W 15 17----29.92- 73.8- 66.0---
2024-02-24 05:40 am W 14 16----29.92- 73.8- 65.8---
2024-02-24 05:30 am W 15 18----29.92- 73.8- 65.5---
2024-02-24 05:20 am W 15 17----29.91- 73.6- 65.5---
2024-02-24 05:10 am W 16 18----29.92- 73.6- 65.8---
2024-02-24 05:00 am W 15 17----29.91-0.01 73.2- 66.2---
2024-02-24 04:50 am W 13 17----29.92- 73.2- 66.9---
2024-02-24 04:40 am W 13 15----29.91- 73.6- 66.7---
2024-02-24 04:30 am W 14 17----29.91- 73.6- 65.8---
2024-02-24 04:20 am W 14 16----29.91- 73.4- 65.5---
2024-02-24 04:10 am W 14 16----29.91- 73.4- 65.7---
2024-02-24 04:00 am W 15 17----29.91-0.02 73.2- 65.5---
2024-02-24 03:50 am W 14 16----29.91- 73.4- 65.8---
2024-02-24 03:40 am W 14 17----29.91- 73.2- 65.8---
2024-02-24 03:30 am W 13 15----29.91- 73.2- 66.2---
2024-02-24 03:20 am W 13 15----29.91- 73.2- 66.2---
2024-02-24 03:10 am W 13 15----29.92- 73.4- 66.4---
2024-02-24 03:00 am W 13 15----29.92-0.02------
2024-02-24 02:50 am W 13 15----29.92- 73.4- 66.4---
2024-02-24 02:40 am W 13 14----29.92- 73.4- 66.0---
2024-02-24 02:30 am W 13 14----29.92- 73.2- 66.0---
2024-02-24 02:20 am W 13 15----29.92- 73.4- 66.4---
2024-02-24 02:10 am W 14 15----29.92- 73.4- 66.6---
2024-02-24 02:00 am W 13 15----29.92-0.03------
2024-02-24 01:50 am W 13 15----29.92- 73.6- 66.7---
2024-02-24 01:40 am W 13 15----29.93- 73.6- 66.6---
2024-02-24 01:30 am W 12 14----29.93- 73.9- 66.6---
2024-02-24 01:20 amWSW 13 16----29.93- 74.5- 66.4---
2024-02-24 01:10 amWSW 15 18----29.93- 74.5- 65.8---
2024-02-24 01:00 amWSW 15 18----29.93-0.01 74.7- 65.8---
2024-02-24 12:50 amWSW 16 19----29.93- 74.5- 65.3---
2024-02-24 12:40 amWSW 16 19----29.93- 74.5- 65.1---
2024-02-24 12:30 amWSW 17 19----29.94- 74.5- 65.1---
2024-02-24 12:20 amWSW 16 19----29.94- 74.7- 65.1---
2024-02-24 12:10 amWSW 17 20----29.94- 74.5- 64.6---
2024-02-24 12:00 amWSW 17 20----29.94+0.00 74.5- 64.6---
2024-02-23 11:50 pmWSW 17 19----29.94- 74.5- 64.6---